When you browse on this site, cookies collect data to enhance your experience and personalize the content and advertising you see.
Visit our Privacy Policy to learn more. By continuing to use the site, you agree to this use of cookies and data.
  • In Hungary
  • List of Countries
  • For 7 days
  • Water Temperature
  • Satellite Maps
  • Weather Map
  • News
  • Weather Widgets
  • user-avatar
    Login

    Hourly Weather Mokryy Kerchik

    Today, 19 November, Monday

    Time Temperature Precipitation Wind Pressure Humidity
    00:00 -2°C° 0 mm 1 mps 767 mmHg 83%
    01:00 -2°C° 0 mm 1 mps 767 mmHg 84%
    02:00 -3°C° 0 mm 1 mps 767 mmHg 84%
    03:00 -4°C° 0 mm 1 mps 767 mmHg 82%
    04:00 -4°C° 0 mm 1 mps 767 mmHg 82%
    05:00 -4°C° 0 mm 1 mps 767 mmHg 83%
    06:00 -6°C° 0 mm 2 mps 767 mmHg 83%
    07:00 -6°C° 0 mm 2 mps 767 mmHg 83%
    08:00 -5°C° 0 mm 2 mps 767 mmHg 84%
    09:00 -5°C° 0 mm 2 mps 767 mmHg 84%
    10:00 -4°C° 0 mm 2 mps 767 mmHg 84%
    11:00 -4°C° 0 mm 3 mps 767 mmHg 83%
    12:00 -1°C° 0 mm 3 mps 767 mmHg 83%
    13:00 -1°C° 0 mm 3 mps 767 mmHg 84%
    14:00 -1°C° 0 mm 3 mps 767 mmHg 85%
    15:00 -1°C° 0 mm 2 mps 766 mmHg 88%
    16:00 -2°C° 0 mm 3 mps 766 mmHg 86%
    17:00 -4°C° 0 mm 3 mps 766 mmHg 85%
    18:00 -5°C° 0 mm 3 mps 766 mmHg 84%
    19:00 -5°C° 0 mm 3 mps 766 mmHg 83%
    20:00 -5°C° 0 mm 3 mps 765 mmHg 82%
    21:00 -5°C° 0 mm 3 mps 765 mmHg 80%
    22:00 -4°C° 0 mm 3 mps 765 mmHg 81%
    23:00 -4°C° 0 mm 3 mps 765 mmHg 83%

    Tomorrow, 20 November, Tuesday

    Time Temperature Precipitation Wind Pressure Humidity
    00:00 -2°C° 0 mm 3 mps 764 mmHg 84%
    01:00 -2°C° 0.2 mm 3 mps 764 mmHg 85%
    02:00 -2°C° 0.2 mm 3 mps 764 mmHg 87%
    03:00 -2°C° 0.2 mm 3 mps 764 mmHg 89%
    04:00 -3°C° 0.1 mm 4 mps 763 mmHg 89%
    05:00 -3°C° 0.1 mm 4 mps 763 mmHg 89%
    06:00 -3°C° 0.1 mm 4 mps 762 mmHg 89%
    07:00 -2°C° 0.2 mm 4 mps 762 mmHg 89%
    08:00 -2°C° 0.2 mm 4 mps 762 mmHg 90%
    09:00 -2°C° 0.2 mm 4 mps 762 mmHg 90%
    10:00 -2°C° 0.3 mm 5 mps 762 mmHg 91%
    11:00 -1°C° 0.3 mm 5 mps 761 mmHg 93%
    12:00 -1°C° 0.3 mm 5 mps 761 mmHg 94%
    13:00 -1°C° 0.3 mm 5 mps 761 mmHg 94%
    14:00 -1°C° 0.3 mm 5 mps 761 mmHg 94%
    15:00 -1°C° 0.3 mm 5 mps 760 mmHg 94%
    16:00 -1°C° 0.6 mm 5 mps 761 mmHg 93%
    17:00 -2°C° 0.6 mm 6 mps 761 mmHg 92%
    18:00 -2°C° 0.6 mm 6 mps 761 mmHg 91%
    19:00 -2°C° 0.1 mm 5 mps 761 mmHg 90%
    20:00 -2°C° 0.1 mm 5 mps 762 mmHg 89%
    21:00 -4°C° 0.1 mm 5 mps 762 mmHg 88%
    22:00 -4°C° 0 mm 4 mps 762 mmHg 88%
    23:00 -4°C° 0 mm 4 mps 763 mmHg 88%

    Day after tomorrow, 21 November, Wednesday

    Time Temperature Precipitation Wind Pressure Humidity
    00:00 -5°C° 0 mm 3 mps 763 mmHg 88%
    01:00 -6°C° 0 mm 3 mps 763 mmHg 86%
    02:00 -6°C° 0 mm 3 mps 764 mmHg 85%
    03:00 -7°C° 0 mm 3 mps 764 mmHg 84%
    04:00 -7°C° 0 mm 3 mps 764 mmHg 85%
    05:00 -7°C° 0 mm 3 mps 764 mmHg 86%
    06:00 -8°C° 0 mm 3 mps 764 mmHg 86%
    07:00 -7°C° 0 mm 3 mps 764 mmHg 88%
    08:00 -6°C° 0 mm 2 mps 764 mmHg 89%
    09:00 -6°C° 0 mm 2 mps 765 mmHg 91%
    10:00 -4°C° 0 mm 2 mps 764 mmHg 91%
    11:00 -3°C° 0 mm 2 mps 764 mmHg 91%
    12:00 -2°C° 0 mm 2 mps 764 mmHg 91%
    13:00 -2°C° 0 mm 2 mps 764 mmHg 91%
    14:00 -2°C° 0 mm 2 mps 763 mmHg 92%
    15:00 -2°C° 0 mm 2 mps 763 mmHg 92%
    16:00 -3°C° 0 mm 2 mps 763 mmHg 92%
    17:00 -4°C° 0 mm 2 mps 763 mmHg 91%
    18:00 -5°C° 0 mm 2 mps 763 mmHg 91%
    19:00 -5°C° 0 mm 2 mps 763 mmHg 90%
    20:00 -5°C° 0 mm 2 mps 763 mmHg 89%
    21:00 -6°C° 0 mm 2 mps 763 mmHg 88%
    22:00 -6°C° 0 mm 2 mps 763 mmHg 87%
    23:00 -6°C° 0 mm 2 mps 763 mmHg 87%

    22 November, Thursday

    Time Temperature Precipitation Wind Pressure Humidity
    00:00 -6°C° 0 mm 2 mps 762 mmHg 86%
    01:00 -6°C° 0 mm 2 mps 762 mmHg 87%
    02:00 -6°C° 0 mm 2 mps 762 mmHg 87%
    03:00 -6°C° 0 mm 2 mps 762 mmHg 87%
    04:00 -7°C° 0 mm 2 mps 762 mmHg 88%
    05:00 -7°C° 0 mm 2 mps 763 mmHg 89%
    06:00 -7°C° 0 mm 2 mps 763 mmHg 90%
    07:00 -7°C° 0 mm 2 mps 763 mmHg 91%
    08:00 -6°C° 0 mm 2 mps 763 mmHg 91%
    09:00 -6°C° 0 mm 2 mps 764 mmHg 92%
    10:00 -5°C° 0 mm 2 mps 763 mmHg 90%
    11:00 -4°C° 0 mm 2 mps 763 mmHg 89%
    12:00 -3°C° 0 mm 2 mps 763 mmHg 87%
    13:00 -3°C° 0 mm 2 mps 763 mmHg 87%
    14:00 -3°C° 0 mm 2 mps 763 mmHg 87%
    15:00 -3°C° 0 mm 2 mps 763 mmHg 87%
    16:00 -4°C° 0 mm 2 mps 763 mmHg 87%
    17:00 -5°C° 0 mm 2 mps 763 mmHg 86%
    18:00 -6°C° 0 mm 2 mps 763 mmHg 86%
    19:00 -6°C° 0 mm 2 mps 763 mmHg 85%
    20:00 -6°C° 0 mm 2 mps 763 mmHg 85%
    21:00 -6°C° 0 mm 2 mps 763 mmHg 84%
    22:00 -7°C° 0 mm 3 mps 762 mmHg 85%
    23:00 -7°C° 0 mm 3 mps 762 mmHg 85%

    23 November, Friday

    Time Temperature Precipitation Wind Pressure Humidity
    00:00 -7°C° 0 mm 3 mps 762 mmHg 85%
    01:00 -7°C° 0 mm 3 mps 762 mmHg 86%
    02:00 -8°C° 0 mm 4 mps 762 mmHg 86%
    03:00 -8°C° 0 mm 4 mps 762 mmHg 86%
    04:00 -8°C° 0 mm 4 mps 762 mmHg 87%
    05:00 -8°C° 0 mm 4 mps 762 mmHg 87%
    06:00 -8°C° 0 mm 4 mps 762 mmHg 88%
    07:00 -8°C° 0 mm 4 mps 763 mmHg 89%
    08:00 -8°C° 0 mm 4 mps 763 mmHg 89%
    09:00 -7°C° 0 mm 4 mps 764 mmHg 90%
    10:00 -5°C° 0 mm 4 mps 765 mmHg 88%
    11:00 -4°C° 0 mm 4 mps 765 mmHg 87%
    12:00 -3°C° 0 mm 4 mps 766 mmHg 85%
    13:00 -2°C° 0 mm 3 mps 766 mmHg 85%
    14:00 -2°C° 0 mm 3 mps 767 mmHg 85%
    15:00 -2°C° 0 mm 2 mps 767 mmHg 85%
    16:00 -3°C° 0 mm 2 mps 768 mmHg 83%
    17:00 -4°C° 0 mm 2 mps 769 mmHg 81%
    18:00 -5°C° 0 mm 2 mps 769 mmHg 79%
    19:00 -6°C° 0 mm 2 mps 770 mmHg 78%
    20:00 -7°C° 0 mm 2 mps 771 mmHg 76%
    21:00 -7°C° 0 mm 2 mps 771 mmHg 74%
    22:00 -7°C° 0 mm 1 mps 771 mmHg 73%
    23:00 -7°C° 0 mm 1 mps 772 mmHg 73%

    24 November, Saturday

    Time Temperature Precipitation Wind Pressure Humidity
    00:00 -7°C° 0 mm 1 mps 772 mmHg 72%
    01:00 -8°C° 0 mm 1 mps 772 mmHg 72%
    02:00 -8°C° 0 mm 1 mps 772 mmHg 72%
    03:00 -8°C° 0 mm 1 mps 772 mmHg 71%
    04:00 -8°C° 0 mm 1 mps 772 mmHg 72%
    05:00 -8°C° 0 mm 1 mps 772 mmHg 72%
    06:00 -9°C° 0 mm 1 mps 772 mmHg 72%
    07:00 -8°C° 0 mm 1 mps 772 mmHg 73%
    08:00 -8°C° 0 mm 1 mps 772 mmHg 74%
    09:00 -7°C° 0 mm 1 mps 772 mmHg 75%
    10:00 -6°C° 0 mm 1 mps 772 mmHg 75%
    11:00 -4°C° 0 mm 1 mps 772 mmHg 74%
    12:00 -2°C° 0 mm 1 mps 771 mmHg 74%
    13:00 -2°C° 0 mm 1 mps 771 mmHg 76%
    14:00 -2°C° 0 mm 1 mps 770 mmHg 78%
    15:00 -2°C° 0 mm 1 mps 770 mmHg 80%
    16:00 -4°C° 0 mm 1 mps 770 mmHg 79%
    17:00 -6°C° 0 mm 1 mps 769 mmHg 79%
    18:00 -8°C° 0 mm 2 mps 769 mmHg 78%
    19:00 -7°C° 0 mm 1 mps 769 mmHg 78%
    20:00 -7°C° 0 mm 1 mps 769 mmHg 78%
    21:00 -7°C° 0 mm 1 mps 768 mmHg 78%
    22:00 -7°C° 0 mm 1 mps 768 mmHg 78%
    23:00 -7°C° 0 mm 1 mps 768 mmHg 78%
    Show more